[Date Prev][Date Next][Thread Prev][Thread Next] - [Date Index][Thread Index][Author Index]

2 Line ISS Keps 1-13



ISS 
1 25544U 98067A   05013.31538581  .00023098  00000-0  17145-3 0  5778
2 25544  51.6403 332.7170 0003262 191.4728 322.5539 15.72753681351338
----
Via the sarex mailing list at AMSAT.ORG courtesy of AMSAT-NA.
To unsubscribe, send "unsubscribe sarex" to Majordomo@amsat.org



AMSAT Top AMSAT Home